DAL195 KATL-KDFW

Flight info

Callsign DAL195
Flight time 1h 55m
Altitude 38000
Route KAJIN2 STNGA MLU YUYUN BEREE3
Aircraft L101/H-SDFGHIRWXY/S

Departure

Time 2026-05-03 21:53
Airport Hartsfield Jackson Atlanta International Airport (KATL)

Arrival

Time 2026-05-03 23:49
Airport Dallas Fort Worth International Airport (KDFW)
Time Latitude Longitude Altitude Speed Heading
2026-05-03 21:22 33.64049 -84.42984 1040 ft 0 kts 117°
2026-05-03 21:44 33.64052 -84.42993 1041 ft 3 kts 119°
2026-05-03 21:44 33.64064 -84.43021 1040 ft 4 kts 107°
2026-05-03 21:45 33.64067 -84.43051 1041 ft 4 kts 66°
2026-05-03 21:45 33.64054 -84.43066 1040 ft 1 kts
2026-05-03 21:45 33.64053 -84.43066 1040 ft 0 kts
2026-05-03 21:47 33.64063 -84.43066 1040 ft 3 kts
2026-05-03 21:47 33.64080 -84.43066 1040 ft 5 kts
2026-05-03 21:47 33.64127 -84.43066 1040 ft 9 kts
2026-05-03 21:47 33.64202 -84.43065 1040 ft 13 kts
2026-05-03 21:48 33.64303 -84.43065 1041 ft 15 kts
2026-05-03 21:48 33.64380 -84.43065 1040 ft 0 kts
2026-05-03 21:48 33.64396 -84.43065 1040 ft 4 kts
2026-05-03 21:48 33.64437 -84.43055 1040 ft 8 kts 27°
2026-05-03 21:49 33.64462 -84.42990 1040 ft 11 kts 88°
2026-05-03 21:49 33.64462 -84.42873 1040 ft 17 kts 90°
2026-05-03 21:49 33.64462 -84.42710 1040 ft 22 kts 88°
2026-05-03 21:49 33.64468 -84.42507 1040 ft 27 kts 89°
2026-05-03 21:50 33.64477 -84.42266 1040 ft 30 kts 75°
2026-05-03 21:50 33.64544 -84.42024 1040 ft 31 kts 92°
2026-05-03 21:50 33.64543 -84.41759 1041 ft 32 kts 91°
2026-05-03 21:50 33.64541 -84.41481 1041 ft 34 kts 90°
2026-05-03 21:51 33.64539 -84.41221 1041 ft 30 kts 88°
2026-05-03 21:51 33.64542 -84.40964 1040 ft 31 kts 90°
2026-05-03 21:51 33.64575 -84.40731 1039 ft 24 kts 91°
2026-05-03 21:51 33.64576 -84.40613 1039 ft 0 kts 71°
2026-05-03 21:52 33.64576 -84.40612 1040 ft 1 kts 71°
2026-05-03 21:52 33.64591 -84.40588 1039 ft 7 kts 38°
2026-05-03 21:52 33.64658 -84.40582 1038 ft 12 kts 330°
2026-05-03 21:52 33.64679 -84.40709 1038 ft 29 kts 269°
2026-05-03 21:53 33.64680 -84.41256 1042 ft 109 kts 269°
2026-05-03 21:53 33.64677 -84.42496 1209 ft 176 kts 269°
2026-05-03 21:53 33.64666 -84.44053 2135 ft 195 kts 269°
2026-05-03 21:53 33.64728 -84.45743 3182 ft 211 kts 275°
2026-05-03 21:54 33.64906 -84.47582 4104 ft 232 kts 278°
2026-05-03 21:54 33.65181 -84.49608 4523 ft 263 kts 281°
2026-05-03 21:54 33.65563 -84.51829 5035 ft 280 kts 283°
2026-05-03 21:54 33.66007 -84.54063 6321 ft 265 kts 284°
2026-05-03 21:55 33.66469 -84.56194 7471 ft 266 kts 284°
2026-05-03 21:55 33.66930 -84.58424 8024 ft 285 kts 283°
2026-05-03 21:55 33.67356 -84.60752 9023 ft 282 kts 282°
2026-05-03 21:55 33.67762 -84.63045 10047 ft 284 kts 282°
2026-05-03 21:56 33.68189 -84.65429 10525 ft 304 kts 282°
2026-05-03 21:56 33.68654 -84.68027 10673 ft 333 kts 282°
2026-05-03 21:56 33.69151 -84.70850 10780 ft 357 kts 281°
2026-05-03 21:56 33.69442 -84.73893 11001 ft 373 kts 268°
2026-05-03 21:57 33.68919 -84.76933 11864 ft 370 kts 251°
2026-05-03 21:57 33.67958 -84.79790 12668 ft 372 kts 250°
2026-05-03 21:57 33.67099 -84.82772 13108 ft 381 kts 255°
2026-05-03 21:57 33.66432 -84.85788 14049 ft 371 kts 257°
2026-05-03 21:58 33.65781 -84.88704 14046 ft 354 kts 255°
2026-05-03 21:58 33.65035 -84.91430 13930 ft 335 kts 251°
2026-05-03 21:58 33.64219 -84.94025 13980 ft 331 kts 250°
2026-05-03 21:58 33.63379 -84.96619 14028 ft 335 kts 250°
2026-05-03 21:59 33.62549 -84.99230 14027 ft 335 kts 251°
2026-05-03 21:59 33.61724 -85.01852 14034 ft 335 kts 251°
2026-05-03 21:59 33.60907 -85.04428 14034 ft 335 kts 250°
2026-05-03 21:59 33.60070 -85.07036 14051 ft 335 kts 250°
2026-05-03 22:00 33.59229 -85.09640 14053 ft 335 kts 250°
2026-05-03 22:00 33.58375 -85.12283 14025 ft 335 kts 250°
2026-05-03 22:00 33.57544 -85.14850 14022 ft 335 kts 250°
2026-05-03 22:00 33.56700 -85.17453 14021 ft 334 kts 250°
2026-05-03 22:01 33.55865 -85.20059 14037 ft 335 kts 252°
2026-05-03 22:01 33.55203 -85.22696 14594 ft 328 kts 257°
2026-05-03 22:01 33.54694 -85.25450 14858 ft 351 kts 259°
2026-05-03 22:01 33.54147 -85.28403 15035 ft 373 kts 258°
2026-05-03 22:02 33.53521 -85.31509 15264 ft 391 kts 257°
2026-05-03 22:02 33.52865 -85.34675 16129 ft 388 kts 257°
2026-05-03 22:02 33.52235 -85.37819 17011 ft 389 kts 258°
2026-05-03 22:02 33.51637 -85.40974 17644 ft 393 kts 258°
2026-05-03 22:03 33.51046 -85.44193 18323 ft 398 kts 258°
2026-05-03 22:03 33.50446 -85.47455 19036 ft 401 kts 258°
2026-05-03 22:03 33.49839 -85.50729 19746 ft 404 kts 258°
2026-05-03 22:03 33.49220 -85.54030 20434 ft 408 kts 258°
2026-05-03 22:04 33.48598 -85.57361 21152 ft 411 kts 258°
2026-05-03 22:04 33.47974 -85.60726 21791 ft 416 kts 258°
2026-05-03 22:04 33.47342 -85.64123 22505 ft 420 kts 258°
2026-05-03 22:04 33.46704 -85.67545 23155 ft 423 kts 258°
2026-05-03 22:05 33.46055 -85.70998 23779 ft 428 kts 257°
2026-05-03 22:05 33.45400 -85.74480 24451 ft 430 kts 257°
2026-05-03 22:05 33.44750 -85.77944 25065 ft 433 kts 257°
2026-05-03 22:05 33.44087 -85.81482 25623 ft 438 kts 258°
2026-05-03 22:06 33.43407 -85.85097 25772 ft 451 kts 257°
2026-05-03 22:06 33.42704 -85.88815 25880 ft 463 kts 257°
2026-05-03 22:06 33.41985 -85.92604 26415 ft 465 kts 257°
2026-05-03 22:06 33.41277 -85.96356 27250 ft 461 kts 257°
2026-05-03 22:07 33.40573 -86.00082 28104 ft 456 kts 257°
2026-05-03 22:07 33.39872 -86.03767 28896 ft 453 kts 257°
2026-05-03 22:07 33.39172 -86.07433 29677 ft 450 kts 257°
2026-05-03 22:07 33.38482 -86.11032 30438 ft 447 kts 257°
2026-05-03 22:08 33.37794 -86.14634 31262 ft 442 kts 257°
2026-05-03 22:08 33.37113 -86.18198 32123 ft 437 kts 257°
2026-05-03 22:08 33.36437 -86.21723 32979 ft 431 kts 257°
2026-05-03 22:08 33.35770 -86.25199 33786 ft 426 kts 256°
2026-05-03 22:09 33.35111 -86.28618 34601 ft 420 kts 256°
2026-05-03 22:09 33.34455 -86.32017 35236 ft 418 kts 256°
2026-05-03 22:09 33.33801 -86.35396 35855 ft 416 kts 256°
2026-05-03 22:10 33.32503 -86.42095 37068 ft 411 kts 256°
2026-05-03 22:10 33.31858 -86.45418 37713 ft 407 kts 256°
2026-05-03 22:10 33.31216 -86.48724 38112 ft 412 kts 256°
2026-05-03 22:11 33.29927 -86.55347 38147 ft 407 kts 256°
2026-05-03 22:11 33.28645 -86.61906 38152 ft 404 kts 256°
2026-05-03 22:12 33.27361 -86.68445 38148 ft 404 kts 256°
2026-05-03 22:12 33.26075 -86.74996 38133 ft 405 kts 256°
2026-05-03 22:13 33.24784 -86.81550 38133 ft 405 kts 256°
2026-05-03 22:13 33.23500 -86.88070 38130 ft 405 kts 256°
2026-05-03 22:14 33.22200 -86.94624 38152 ft 406 kts 256°
2026-05-03 22:14 33.20895 -87.01201 38147 ft 407 kts 256°
2026-05-03 22:15 33.19584 -87.07781 38144 ft 407 kts 256°
2026-05-03 22:15 33.18269 -87.14368 38150 ft 408 kts 256°
2026-05-03 22:16 33.16945 -87.20968 38146 ft 409 kts 256°
2026-05-03 22:16 33.15616 -87.27582 38130 ft 410 kts 256°
2026-05-03 22:17 33.14286 -87.34161 38133 ft 410 kts 256°
2026-05-03 22:17 33.12944 -87.40782 38128 ft 411 kts 256°
2026-05-03 22:18 33.11846 -87.47482 38133 ft 411 kts 261°
2026-05-03 22:18 33.11011 -87.54241 38131 ft 412 kts 259°
2026-05-03 22:19 33.10129 -87.61002 38147 ft 412 kts 260°
2026-05-03 22:19 33.09333 -87.67772 38136 ft 412 kts 261°
2026-05-03 22:20 33.08558 -87.74550 38131 ft 413 kts 261°
2026-05-03 22:20 33.07785 -87.81302 38131 ft 413 kts 261°
2026-05-03 22:21 33.07003 -87.88110 38147 ft 413 kts 261°
2026-05-03 22:21 33.06220 -87.94907 38144 ft 413 kts 261°
2026-05-03 22:22 33.05441 -88.01653 38132 ft 414 kts 261°
2026-05-03 22:22 33.04649 -88.08465 38133 ft 416 kts 261°
2026-05-03 22:23 33.03849 -88.15330 38130 ft 418 kts 261°
2026-05-03 22:23 33.03043 -88.22204 38129 ft 418 kts 261°
2026-05-03 22:24 33.02231 -88.29066 38132 ft 418 kts 261°
2026-05-03 22:24 33.01428 -88.35882 38127 ft 418 kts 261°
2026-05-03 22:25 33.00611 -88.42747 38134 ft 418 kts 261°
2026-05-03 22:25 32.99791 -88.49604 38133 ft 418 kts 261°
2026-05-03 22:26 32.98964 -88.56455 38138 ft 418 kts 261°
2026-05-03 22:26 32.98142 -88.63312 38142 ft 418 kts 261°
2026-05-03 22:27 32.97318 -88.70119 38149 ft 418 kts 261°
2026-05-03 22:27 32.96477 -88.76971 38146 ft 418 kts 261°
2026-05-03 22:28 32.95640 -88.83826 38143 ft 419 kts 261°
2026-05-03 22:28 32.94793 -88.90697 38142 ft 419 kts 261°
2026-05-03 22:29 32.93946 -88.97559 38132 ft 419 kts 261°
2026-05-03 22:29 32.93096 -89.04430 38131 ft 419 kts 262°
2026-05-03 22:30 32.92245 -89.11251 38129 ft 419 kts 262°
2026-05-03 22:30 32.91385 -89.18119 38127 ft 420 kts 262°
2026-05-03 22:31 32.90522 -89.24997 38128 ft 420 kts 262°
2026-05-03 22:31 32.89652 -89.31871 38127 ft 420 kts 262°
2026-05-03 22:32 32.88780 -89.38746 38127 ft 420 kts 262°
2026-05-03 22:32 32.87910 -89.45578 38130 ft 420 kts 262°
2026-05-03 22:33 32.87028 -89.52461 38129 ft 420 kts 262°
2026-05-03 22:33 32.86143 -89.59337 38126 ft 420 kts 262°
2026-05-03 22:34 32.85253 -89.66215 38122 ft 420 kts 262°
2026-05-03 22:34 32.84512 -89.71925 38119 ft 420 kts 262°
2026-05-03 22:35 32.83474 -89.79907 38120 ft 420 kts 262°
2026-05-03 22:35 32.82722 -89.85665 38119 ft 421 kts 262°
2026-05-03 22:36 32.81824 -89.92504 38120 ft 421 kts 262°
2026-05-03 22:36 32.80913 -89.99387 38117 ft 421 kts 262°
2026-05-03 22:37 32.80000 -90.06270 38119 ft 422 kts 262°
2026-05-03 22:37 32.79083 -90.13163 38120 ft 422 kts 262°
2026-05-03 22:38 32.78168 -90.20012 38120 ft 422 kts 262°
2026-05-03 22:38 32.77243 -90.26901 38117 ft 422 kts 262°
2026-05-03 22:39 32.76312 -90.33794 38120 ft 422 kts 262°
2026-05-03 22:39 32.75378 -90.40691 38117 ft 422 kts 262°
2026-05-03 22:40 32.74441 -90.47582 38116 ft 422 kts 262°
2026-05-03 22:40 32.73500 -90.54475 38120 ft 422 kts 262°
2026-05-03 22:41 32.72562 -90.61325 38128 ft 423 kts 262°
2026-05-03 22:41 32.71612 -90.68231 38126 ft 422 kts 262°
2026-05-03 22:42 32.70659 -90.75111 38130 ft 423 kts 262°
2026-05-03 22:42 32.69710 -90.81958 38128 ft 422 kts 262°
2026-05-03 22:43 32.68750 -90.88844 38120 ft 423 kts 262°
2026-05-03 22:43 32.67782 -90.95733 38118 ft 423 kts 262°
2026-05-03 22:44 32.66808 -91.02637 38118 ft 423 kts 262°
2026-05-03 22:44 32.65836 -91.09523 38119 ft 423 kts 263°
2026-05-03 22:45 32.64867 -91.16370 38118 ft 423 kts 263°
2026-05-03 22:45 32.63888 -91.23260 38120 ft 423 kts 263°
2026-05-03 22:46 32.62901 -91.30151 38119 ft 423 kts 263°
2026-05-03 22:46 32.61912 -91.37046 38117 ft 424 kts 263°
2026-05-03 22:47 32.60921 -91.43938 38118 ft 423 kts 263°
2026-05-03 22:47 32.59931 -91.50778 38121 ft 423 kts 263°
2026-05-03 22:48 32.58931 -91.57652 38120 ft 423 kts 263°
2026-05-03 22:48 32.57929 -91.64525 38120 ft 423 kts 263°
2026-05-03 22:49 32.56923 -91.71396 38118 ft 422 kts 263°
2026-05-03 22:49 32.55913 -91.78258 38117 ft 422 kts 263°
2026-05-03 22:50 32.54903 -91.85122 38118 ft 423 kts 263°
2026-05-03 22:50 32.53891 -91.91953 38117 ft 423 kts 263°
2026-05-03 22:51 32.52868 -91.98818 38121 ft 423 kts 263°
2026-05-03 22:51 32.52015 -92.05701 38116 ft 420 kts 267°
2026-05-03 22:52 32.51352 -92.12592 38113 ft 421 kts 266°
2026-05-03 22:52 32.50692 -92.19469 38121 ft 420 kts 267°
2026-05-03 22:53 32.50161 -92.26303 38118 ft 419 kts 268°
2026-05-03 22:53 32.49654 -92.33191 38110 ft 419 kts 268°
2026-05-03 22:54 32.49145 -92.40073 38111 ft 419 kts 268°
2026-05-03 22:54 32.48631 -92.46956 38098 ft 419 kts 268°
2026-05-03 22:55 32.48123 -92.53800 38098 ft 419 kts 268°
2026-05-03 22:55 32.47613 -92.60683 38103 ft 418 kts 268°
2026-05-03 22:56 32.47101 -92.67506 38102 ft 418 kts 268°
2026-05-03 22:56 32.46581 -92.74374 38098 ft 418 kts 268°
2026-05-03 22:57 32.46060 -92.81228 38100 ft 418 kts 268°
2026-05-03 22:57 32.45536 -92.88045 38102 ft 417 kts 268°
2026-05-03 22:58 32.45013 -92.94889 38108 ft 417 kts 269°
2026-05-03 22:58 32.44459 -93.01733 38112 ft 417 kts 268°
2026-05-03 22:59 32.43914 -93.08568 38111 ft 416 kts 269°
2026-05-03 22:59 32.43386 -93.15388 38107 ft 416 kts 269°
2026-05-03 23:00 32.42858 -93.22203 38109 ft 415 kts 269°
2026-05-03 23:00 32.42331 -93.28970 38114 ft 414 kts 269°
2026-05-03 23:01 32.41799 -93.35764 38110 ft 414 kts 269°
2026-05-03 23:01 32.41263 -93.42554 38108 ft 413 kts 269°
2026-05-03 23:02 32.40726 -93.49330 38110 ft 413 kts 269°
2026-05-03 23:02 32.40189 -93.56055 38108 ft 412 kts 269°
2026-05-03 23:03 32.39645 -93.62818 38112 ft 412 kts 269°
2026-05-03 23:03 32.39096 -93.69580 38112 ft 412 kts 269°
2026-05-03 23:04 32.38548 -93.76284 38096 ft 412 kts 269°
2026-05-03 23:04 32.37996 -93.83025 38092 ft 411 kts 269°
2026-05-03 23:05 32.37442 -93.89753 38092 ft 410 kts 269°
2026-05-03 23:05 32.36881 -93.96476 38098 ft 411 kts 269°
2026-05-03 23:06 32.36314 -94.03200 38106 ft 410 kts 269°
2026-05-03 23:06 32.35755 -94.09866 38098 ft 409 kts 269°
2026-05-03 23:07 32.35185 -94.16561 38094 ft 409 kts 270°
2026-05-03 23:07 32.34616 -94.23261 38100 ft 409 kts 270°
2026-05-03 23:08 32.34044 -94.29949 38103 ft 408 kts 270°
2026-05-03 23:08 32.33467 -94.36636 38102 ft 409 kts 269°
2026-05-03 23:09 32.32889 -94.43275 38097 ft 408 kts 270°
2026-05-03 23:09 32.32304 -94.49944 38096 ft 408 kts 270°
2026-05-03 23:10 32.31717 -94.56613 38090 ft 408 kts 270°
2026-05-03 23:10 32.31125 -94.63275 38093 ft 407 kts 270°
2026-05-03 23:11 32.30537 -94.69891 38097 ft 406 kts 270°
2026-05-03 23:11 32.29941 -94.76526 38089 ft 405 kts 270°
2026-05-03 23:12 32.29348 -94.83148 38092 ft 404 kts 270°
2026-05-03 23:12 32.28748 -94.89743 38097 ft 403 kts 270°
2026-05-03 23:13 32.28145 -94.96334 38099 ft 402 kts 270°
2026-05-03 23:13 32.27492 -95.02903 38097 ft 402 kts 269°
2026-05-03 23:14 32.26714 -95.09419 38097 ft 402 kts 269°
2026-05-03 23:14 32.25974 -95.15961 38098 ft 400 kts 269°
2026-05-03 23:15 32.25432 -95.22467 38103 ft 394 kts 275°
2026-05-03 23:15 32.25559 -95.28896 38099 ft 390 kts 277°
2026-05-03 23:16 32.25647 -95.35272 38108 ft 390 kts 276°
2026-05-03 23:16 32.25765 -95.41665 38112 ft 388 kts 277°
2026-05-03 23:17 32.25926 -95.48028 38107 ft 387 kts 277°
2026-05-03 23:17 32.26087 -95.54345 38102 ft 386 kts 278°
2026-05-03 23:18 32.26242 -95.60675 38103 ft 385 kts 278°
2026-05-03 23:18 32.26395 -95.66987 38096 ft 384 kts 278°
2026-05-03 23:18 32.26475 -95.70163 37816 ft 387 kts 278°
2026-05-03 23:19 32.26610 -95.73296 37438 ft 376 kts 279°
2026-05-03 23:19 32.26731 -95.76355 37077 ft 370 kts 277°
2026-05-03 23:19 32.26765 -95.79364 37039 ft 363 kts 276°
2026-05-03 23:20 32.26800 -95.85335 37061 ft 368 kts 277°
2026-05-03 23:20 32.26858 -95.88392 36652 ft 375 kts 277°
2026-05-03 23:20 32.26927 -95.91466 36121 ft 374 kts 277°
2026-05-03 23:20 32.26996 -95.94538 35616 ft 373 kts 277°
2026-05-03 23:21 32.27063 -95.97619 35099 ft 377 kts 277°
2026-05-03 23:21 32.27129 -96.00741 34468 ft 383 kts 276°
2026-05-03 23:21 32.27196 -96.03909 33842 ft 389 kts 276°
2026-05-03 23:21 32.27265 -96.07127 33212 ft 394 kts 276°
2026-05-03 23:22 32.27399 -96.13642 31886 ft 391 kts 275°
2026-05-03 23:22 32.27457 -96.16823 31094 ft 382 kts 275°
2026-05-03 23:22 32.27513 -96.19928 30342 ft 374 kts 275°
2026-05-03 23:23 32.27571 -96.22928 29596 ft 366 kts 275°
2026-05-03 23:23 32.27632 -96.25907 28835 ft 360 kts 275°
2026-05-03 23:23 32.27884 -96.28815 27835 ft 354 kts 288°
2026-05-03 23:23 32.28929 -96.31435 26783 ft 355 kts 306°
2026-05-03 23:24 32.30539 -96.33649 25841 ft 353 kts 310°
2026-05-03 23:24 32.32111 -96.35883 24836 ft 353 kts 307°
2026-05-03 23:24 32.33573 -96.38207 23841 ft 352 kts 306°
2026-05-03 23:24 32.34560 -96.39736 23112 ft 353 kts 308°
2026-05-03 23:25 32.36699 -96.42670 21616 ft 356 kts 313°
2026-05-03 23:25 32.38391 -96.44730 20501 ft 358 kts 314°
2026-05-03 23:25 32.40203 -96.46853 19383 ft 359 kts 315°
2026-05-03 23:25 32.41399 -96.48245 18857 ft 353 kts 315°
2026-05-03 23:26 32.43105 -96.50238 18115 ft 345 kts 315°
2026-05-03 23:26 32.44796 -96.52212 17362 ft 338 kts 315°
2026-05-03 23:26 32.46458 -96.54144 16765 ft 328 kts 315°
2026-05-03 23:26 32.48089 -96.56034 16379 ft 331 kts 315°
2026-05-03 23:27 32.49752 -96.57948 16003 ft 333 kts 316°
2026-05-03 23:27 32.51411 -96.59854 15552 ft 332 kts 315°
2026-05-03 23:27 32.53072 -96.61763 15059 ft 331 kts 315°
2026-05-03 23:27 32.54720 -96.63657 14439 ft 328 kts 316°
2026-05-03 23:28 32.56356 -96.65531 13805 ft 325 kts 316°
2026-05-03 23:28 32.57973 -96.67360 13272 ft 321 kts 316°
2026-05-03 23:28 32.59548 -96.69133 13060 ft 302 kts 316°
2026-05-03 23:28 32.61013 -96.70783 13011 ft 280 kts 316°
2026-05-03 23:29 32.62415 -96.72367 13020 ft 279 kts 316°
2026-05-03 23:29 32.63839 -96.73976 13032 ft 285 kts 316°
2026-05-03 23:29 32.65280 -96.75602 13018 ft 286 kts 316°
2026-05-03 23:29 32.66722 -96.77233 13008 ft 285 kts 316°
2026-05-03 23:30 32.68154 -96.78859 13006 ft 285 kts 316°
2026-05-03 23:30 32.69599 -96.80503 12660 ft 292 kts 316°
2026-05-03 23:30 32.71061 -96.82166 12194 ft 286 kts 316°
2026-05-03 23:30 32.72447 -96.83739 12009 ft 271 kts 316°
2026-05-03 23:31 32.73758 -96.85225 11987 ft 250 kts 316°
2026-05-03 23:31 32.74993 -96.86624 11997 ft 242 kts 316°
2026-05-03 23:31 32.76222 -96.88019 12014 ft 246 kts 316°
2026-05-03 23:31 32.77535 -96.89341 11975 ft 249 kts 329°
2026-05-03 23:32 32.79162 -96.89987 11954 ft 247 kts 352°
2026-05-03 23:32 32.80884 -96.90104 12016 ft 249 kts 355°
2026-05-03 23:32 32.82588 -96.90364 12007 ft 251 kts 347°
2026-05-03 23:32 32.84297 -96.90811 12004 ft 250 kts 346°
2026-05-03 23:33 32.86010 -96.91195 11996 ft 251 kts 351°
2026-05-03 23:33 32.87749 -96.91406 11965 ft 251 kts 355°
2026-05-03 23:33 32.89499 -96.91480 11957 ft 251 kts 358°
2026-05-03 23:33 32.91244 -96.91500 11980 ft 251 kts 358°
2026-05-03 23:34 32.92989 -96.91514 12014 ft 250 kts 358°
2026-05-03 23:34 32.94723 -96.91523 11966 ft 252 kts 359°
2026-05-03 23:34 32.96496 -96.91521 11962 ft 252 kts 359°
2026-05-03 23:34 32.98226 -96.91512 11976 ft 252 kts 359°
2026-05-03 23:35 32.99982 -96.91488 11983 ft 253 kts 359°
2026-05-03 23:35 33.01736 -96.91473 11978 ft 252 kts 359°
2026-05-03 23:35 33.03492 -96.91470 11990 ft 252 kts 359°
2026-05-03 23:35 33.05242 -96.91469 12002 ft 251 kts 359°
2026-05-03 23:36 33.06995 -96.91461 12002 ft 252 kts 359°
2026-05-03 23:36 33.08750 -96.91451 11964 ft 252 kts 359°
2026-05-03 23:36 33.10507 -96.91441 11953 ft 252 kts 359°
2026-05-03 23:36 33.12236 -96.91430 11973 ft 252 kts 359°
2026-05-03 23:37 33.13994 -96.91421 11977 ft 252 kts 359°
2026-05-03 23:37 33.15752 -96.91410 11830 ft 251 kts 359°
2026-05-03 23:37 33.17497 -96.91384 11347 ft 252 kts
2026-05-03 23:37 33.19221 -96.90872 10641 ft 264 kts 26°
2026-05-03 23:38 33.20910 -96.90051 10178 ft 260 kts 11°
2026-05-03 23:38 33.22652 -96.89716 9846 ft 247 kts
2026-05-03 23:38 33.24337 -96.89538 9195 ft 246 kts
2026-05-03 23:38 33.26054 -96.89405 8534 ft 246 kts
2026-05-03 23:39 33.27763 -96.89287 7879 ft 246 kts
2026-05-03 23:39 33.29452 -96.89392 7053 ft 245 kts 340°
2026-05-03 23:39 33.30947 -96.90327 6230 ft 242 kts 314°
2026-05-03 23:39 33.31862 -96.91899 5851 ft 219 kts 284°
2026-05-03 23:40 33.31985 -96.93548 5813 ft 185 kts 255°
2026-05-03 23:40 33.31498 -96.94851 5817 ft 165 kts 237°
2026-05-03 23:40 33.30757 -96.96031 6096 ft 192 kts 229°
2026-05-03 23:40 33.29777 -96.97193 6284 ft 205 kts 221°
2026-05-03 23:41 33.28562 -96.98236 6403 ft 221 kts 212°
2026-05-03 23:41 33.27187 -96.99118 6362 ft 227 kts 206°
2026-05-03 23:41 33.25742 -96.99864 6201 ft 226 kts 203°
2026-05-03 23:41 33.24304 -97.00519 6062 ft 221 kts 202°
2026-05-03 23:42 33.22894 -97.01133 6016 ft 211 kts 201°
2026-05-03 23:42 33.21526 -97.01729 5997 ft 210 kts 202°
2026-05-03 23:42 33.20177 -97.02322 6005 ft 196 kts 202°
2026-05-03 23:42 33.18878 -97.02662 5889 ft 189 kts 188°
2026-05-03 23:43 33.17571 -97.02687 5921 ft 188 kts 182°
2026-05-03 23:43 33.16262 -97.02631 5923 ft 194 kts 181°
2026-05-03 23:43 33.14876 -97.02577 5474 ft 202 kts 181°
2026-05-03 23:43 33.13492 -97.02540 5097 ft 195 kts 182°
2026-05-03 23:44 33.12106 -97.02521 4576 ft 199 kts 182°
2026-05-03 23:44 33.10747 -97.02515 4253 ft 191 kts 183°
2026-05-03 23:44 33.09463 -97.02511 4110 ft 176 kts 183°
2026-05-03 23:44 33.08243 -97.02513 3841 ft 175 kts 184°
2026-05-03 23:45 33.07035 -97.02527 3585 ft 170 kts 184°
2026-05-03 23:45 33.05912 -97.02523 3414 ft 159 kts 183°
2026-05-03 23:45 33.04804 -97.02534 3145 ft 159 kts 184°
2026-05-03 23:45 33.03687 -97.02545 2928 ft 160 kts 183°
2026-05-03 23:46 33.02566 -97.02553 2726 ft 161 kts 182°
2026-05-03 23:46 33.01465 -97.02554 2507 ft 159 kts 182°
2026-05-03 23:46 33.00367 -97.02559 2305 ft 157 kts 182°
2026-05-03 23:46 32.99297 -97.02563 2093 ft 148 kts 182°
2026-05-03 23:47 32.98302 -97.02569 1877 ft 142 kts 182°
2026-05-03 23:47 32.97290 -97.02571 1781 ft 149 kts 181°
2026-05-03 23:47 32.96234 -97.02578 1555 ft 153 kts 182°
2026-05-03 23:47 32.95177 -97.02582 1316 ft 150 kts 181°
2026-05-03 23:48 32.94131 -97.02586 1104 ft 151 kts 181°
2026-05-03 23:48 32.93077 -97.02593 912 ft 152 kts 181°
2026-05-03 23:48 32.92018 -97.02599 730 ft 152 kts 181°
2026-05-03 23:48 32.91037 -97.02605 580 ft 130 kts 181°
2026-05-03 23:49 32.90320 -97.02607 582 ft 81 kts 178°
2026-05-03 23:49 32.89946 -97.02670 579 ft 44 kts 210°
2026-05-03 23:49 32.89730 -97.02800 577 ft 26 kts 183°
2026-05-03 23:49 32.89545 -97.02797 578 ft 28 kts 182°
2026-05-03 23:50 32.89398 -97.02838 579 ft 15 kts 246°
2026-05-03 23:50 32.89395 -97.02882 578 ft 0 kts 269°
2026-05-03 23:50 32.89395 -97.02921 582 ft 14 kts 269°
2026-05-03 23:50 32.89395 -97.03116 581 ft 28 kts 271°
2026-05-03 23:51 32.89372 -97.03297 589 ft 18 kts 211°
2026-05-03 23:51 32.89244 -97.03318 588 ft 20 kts 181°
2026-05-03 23:51 32.89105 -97.03341 589 ft 18 kts 232°
2026-05-03 23:51 32.89045 -97.03437 589 ft 12 kts 228°
2026-05-03 23:52 32.89036 -97.03493 589 ft 0 kts 272°
2026-05-03 23:52 32.89036 -97.03504 589 ft 2 kts 272°
2026-05-03 23:52 32.89036 -97.03513 589 ft 1 kts 272°
2026-05-03 23:52 32.89036 -97.03518 589 ft 0 kts 271°